sat.trackr.live / text

‹ back to catalog

STARLINK-30564

NORAD 58043 · 2023-156R

PAYLOAD ACTIVE UNKNOWN

§ Identity

Operator
Country
US
Launch date
2023-10-09
Launch site
AFWTR
Launch vehicle
Mass (kg)
RCS (m²)

Purposes: comms

External: N2YO · Heavens-Above · Gunter

§ Orbital elements

Epoch: 2026-09-20T22:54:28.793088Z

Period
93.87 min
Inclination
53.1578°
Eccentricity
0.0001944
Mean motion
15.34047782 rev/d
Perigee alt
462.4 km
Apogee alt
465.1 km
Semi-major
6,841.9 km
B*
-9.0845e-3
RAAN
249.6766°
Arg perigee
117.3608°
Mean anomaly
242.7593°
Rev number
16,623

§ Raw data

STARLINK-305641 58043U 23156R   26263.95449992 -.00292434  00000+0 -90845-2 0  99902 58043  53.1578 249.6766 0001944 117.3608 242.7593 15.34047782166236

JSON: /api/v1/satellites/58043 · /tle

For live sub-satellite position, see the globe view (requires WebGL).

§ Visibility from observer

Set your observer location to see the next 7 days of passes ≥ 10°. The values pass through the URL so the page stays shareable.

No JS? Fill the form by hand. The geolocation button needs JavaScript.